Regional Weather Roundup
Issued by NWS Sioux Falls, SD

Home | Current Version | Previous Version | Text Only | Print | Product List | Glossary On
Versions: 1 2 3 4 5 6 7 8 9 10 11 12 13 14 15 16 17 18 19 20 21 22 23 24 25 26 27 28 29 30 31 32 33 34 35 36 37 38 39 40 41 42 43 44 45 46 47 48 49 50
000
ASUS43 KFSD 190002
RWRFSD

WEATHER ROUNDUP FOR SE SOUTH DAKOTA/SW MINNESOTA/NW IOWA
NATIONAL WEATHER SERVICE SIOUX FALLS SD
600 PM CST THU DEC 18 2014

NOTE: "FAIR" INDICATES FEW OR NO CLOUDS BELOW 12,000 FEET WITH NO
SIGNIFICANT WEATHER AND OR OBSTRUCTIONS TO VISIBILITY.


SDZ038>040-050-052>070-190100-
SOUTHEAST SOUTH DAKOTA

CITY           SKY/WX    TMP DP  RH WIND       PRES   REMARKS
CHAMBERLAIN    NOT AVBL
HURON          CLOUDY    26  22  84 S9        30.14S WCI  17
6HR MIN TEMP:  23; 6HR MAX TEMP:  26;

MADISON        CLOUDY    25  25 100 S7        30.14S WCI  17
MITCHELL       CLOUDY    28  24  85 S7        30.16S WCI  21
6HR MIN TEMP:  25; 6HR MAX TEMP:  28;

SIOUX FALLS    CLOUDY    27  22  81 S7        30.17F WCI  19
6HR MIN TEMP:  24; 6HR MAX TEMP:  27; 6HR PCP: TRACE;

WINNER         CLOUDY    28  23  81 S6        30.08S WCI  22
YANKTON        MOCLDY    28  23  80 SE3       30.18S
$$

MNZ071-072-080-081-089-090-097-098-190100-
SOUTHWEST MINNESOTA

CITY           SKY/WX    TMP DP  RH WIND       PRES   REMARKS
FAIRMONT       CLOUDY    23  18  80 SE3       30.23R
JACKSON        CLOUDY    27  19  74 SE5       30.20S WCI  21
LUVERNE        CLOUDY    28  25  86 S3        30.19S
MARSHALL       CLOUDY    21  18  86 SE7       30.20S WCI  13
6HR MIN TEMP:  18; 6HR MAX TEMP:  25;

MONTEVIDEO     CLOUDY    19  19 100 S7        30.23S WCI  10
PIPESTONE      CLOUDY    25  21  86 CALM      30.16S
REDWOOD FALLS  CLOUDY    22  16  78 SE8       30.23S WCI  12
TRACY          LGT SNOW  25  22  89 SE3       30.20S
WINDOM         CLOUDY    23  19  86 CALM      30.20S
WORTHINGTON    CLOUDY    25  21  86 S5        30.19S WCI  19
$$

IAZ001>003-012>014-020>022-031-032-NEZ013-014-SDZ071-190100-
NORTHWEST IOWA

CITY           SKY/WX    TMP DP  RH WIND       PRES   REMARKS
DENISON        CLOUDY    30  27  86 SE3       30.19F
ESTHERVILLE    CLOUDY    23  18  81 SE6       30.21S WCI  16
SIOUX CITY     CLOUDY    30  25  81 S7        30.21S WCI  23
6HR MIN TEMP:  28; 6HR MAX TEMP:  31;

SPENCER        CLOUDY    27  20  75 SE6       30.21S WCI  20
6HR MIN TEMP:  23; 6HR MAX TEMP:  27;

$$

ABBREVIATIONS USED IN REMARKS
   TC - TEMPERATURE IN CELSIUS
  WCI - WIND CHILL INDEX
   HX - HEAT INDEX
  VSB - VISIBILITY



USA.gov is the U.S. government's official web portal to all federal, state and local government web resources and services.